Wind_Speed
40 39 43 39 39 39 39 39 41 46 45 41 43 42 45 47 47 49 49 49 48 49 49 49 51 53 56 58 57 56 58 59 59 59 59 59 60 61 62 63 61 61 64 70
43 42 43 41 42 43 44 42 45 45 46 44 43 41 44 47 49 47 49 50 52 54 56 56 58 59 57 60 66 67 67 66 67 67 65 65 68 68 68 69 70 68 69 69
43 43 46 46 44 44 41 45 46 43 45 41 41 40 46 49 51 53 57 59 61 63 63 65 69 68 68 71 71 70 75 74 74 74 76 77 77 78 78 78 77 76 78 80
45 49 50 48 47 46 42 47 43 44 44 42 42 43 49 55 57 56 58 60 62 62 65 70 72 73 77 73 79 78 78 81 84 83 82 83 87 88 87 88 89 90 88 89
52 51 54 51 49 45 42 46 49 49 47 47 50 51 44 52 58 62 66 66 63 60 60 64 62 61 67 73 74 76 81 83 84 91 93 93 95 96 100 98 100 100 102 102
59 58 58 60 55 52 50 49 52 51 50 48 58 58 53 53 60 65 70 71 71 72 70 69 68 66 70 66 71 77 76 82 84 87 88 90 94 95 100 101 104 105 109 110
66 63 63 61 61 58 55 56 56 56 59 62 61 59 58 64 67 72 73 78 79 72 68 71 71 71 70 74 74 76 84 87 94 95 101 101 98 100 94 102 108 107 107 111
68 68 67 65 65 62 60 61 62 60 58 61 69 68 70 77 78 78 82 80 78 79 81 80 78 82 85 82 81 80 81 83 91 93 94 93 96 101 104 104 105 111 118 117
68 67 66 66 67 65 66 66 70 71 70 71 65 63 72 76 78 78 76 77 78 77 83 83 85 88 96 93 90 89 95 95 97 98 99 98 101 102 106 106 109 114 115 116
69 69 70 69 68 67 70 73 76 81 82 77 69 66 68 78 86 84 87 88 85 87 86 91 97 102 105 103 109 112 111 108 108 108 105 106 107 108 106 107 111 115 118 120
78 77 75 76 76 79 80 81 85 87 85 89 84 76 80 87 90 91 91 88 91 91 95 100 105 110 114 118 123 125 128 123 121 114 110 111 109 112 111 109 109 110 112 114
85 83 80 80 79 79 82 84 90 89 87 81 89 73 86 96 98 90 92 95 93 101 100 105 112 116 125 131 135 139 133 131 123 115 113 115 113 110 107 105 103 103 103 104
91 89 88 86 83 78 77 82 88 89 95 97 96 81 85 93 95 100 102 100 104 109 112 115 119 126 132 139 144 140 135 130 125 117 113 111 106 100 98 95 95 96 96 97
91 89 85 86 88 89 92 88 90 90 95 100 101 97 98 101 103 105 107 109 112 116 121 125 131 134 139 145 144 137 133 135 130 121 113 107 102 98 96 95 94 94 94 95
92 93 96 95 99 103 102 104 97 97 99 105 102 98 103 110 112 114 114 117 121 124 125 131 138 141 149 149 152 140 138 136 124 115 105 100 97 95 94 94 93 92 91 91
96 95 97 100 102 105 109 107 103 100 98 101 106 101 113 114 118 119 120 124 129 132 137 138 144 150 149 152 149 144 134 124 111 105 102 99 97 97 96 95 94 93 92 92
99 98 92 94 99 104 105 94 102 105 106 114 107 116 118 123 125 125 127 135 137 141 145 147 150 155 156 147 147 133 121 114 111 107 104 101 99 97 96 96 95 93 92 91
105 107 109 115 112 108 100 100 110 112 115 120 123 123 126 128 127 131 135 139 144 149 154 157 161 161 154 151 142 127 119 116 112 107 104 102 99 97 96 95 93 92 90 90
115 114 119 123 124 122 108 117 119 124 121 123 128 128 134 134 135 139 145 147 152 155 160 159 157 154 152 150 136 121 117 114 110 106 103 100 97 96 95 94 93 92 90 89
122 121 126 128 130 129 123 124 128 131 130 128 133 136 138 139 140 142 145 146 153 158 161 161 161 156 148 130 119 117 114 111 107 104 102 98 96 95 94 92 91 90 88 87
125 127 129 129 134 134 130 132 135 140 139 138 138 142 143 147 148 148 150 155 162 164 168 164 155 137 125 123 118 113 110 109 105 102 101 99 97 95 93 91 90 88 86 84
129 129 122 130 136 138 134 139 143 144 148 148 147 147 150 152 154 155 157 163 167 170 160 150 135 127 123 119 114 112 107 104 102 100 98 96 93 91 90 88 86 84 82 81
133 132 134 134 137 138 141 146 149 150 151 152 156 158 158 158 160 163 167 168 167 157 141 139 124 123 119 114 111 107 103 101 100 98 96 92 89 87 85 84 82 82 81 80
137 138 141 139 139 146 150 155 157 156 156 158 158 158 160 162 163 164 166 158 145 138 126 124 119 117 113 109 104 102 100 100 97 94 91 88 85 84 83 82 80 80 81 77
141 143 143 146 149 154 157 163 161 161 163 164 164 164 167 168 168 162 148 139 131 127 123 118 115 111 107 103 100 100 99 96 94 91 88 85 84 83 82 81 81 78 76 74
147 151 150 154 159 163 162 160 163 166 167 168 170 171 170 167 149 140 132 128 125 122 120 116 110 106 101 98 97 97 95 95 91 88 85 83 82 81 80 78 76 75 74 73
Wind_Direction
262 262 267 278 278 280 284 285 286 282 287 291 289 288 283 288 286 284 284 283 284 279 279 282 283 283 282 278 274 272 270 268 269 268 269 266 267 268 268 269 267 267 268 269
263 266 271 273 277 284 284 284 282 285 285 284 286 281 278 282 282 285 285 285 282 279 272 273 276 277 278 281 280 277 274 272 269 267 265 267 266 265 265 263 262 262 262 263
269 268 269 274 281 281 284 281 281 282 281 282 281 278 280 285 286 284 280 279 278 280 278 274 273 276 278 277 278 280 277 274 273 271 269 268 266 265 264 263 261 262 262 262
270 267 271 276 277 280 279 278 280 280 280 280 281 280 284 283 282 282 280 277 278 279 280 280 278 279 277 280 277 276 279 278 275 274 272 272 271 270 269 268 266 261 261 263
266 268 270 272 273 273 275 279 283 284 275 279 281 278 282 283 286 290 291 289 289 288 288 294 290 284 281 277 277 279 278 275 277 276 274 274 275 275 272 271 270 267 267 266
266 267 269 272 273 267 276 278 282 284 278 279 277 275 281 280 290 297 294 290 293 293 289 296 300 299 294 289 285 280 281 274 277 275 273 274 275 276 274 272 272 272 269 269
266 269 273 271 272 269 274 279 278 275 275 281 278 279 275 276 285 293 295 291 287 286 289 292 296 293 302 297 298 291 284 278 277 274 270 272 273 276 280 274 271 272 268 267
268 268 269 269 268 268 270 275 276 278 281 283 280 277 276 280 286 291 292 285 289 300 305 306 305 305 309 305 302 293 289 288 289 287 286 284 284 283 278 276 274 272 267 267
268 269 270 269 269 270 270 274 274 279 284 289 288 286 279 281 287 286 289 289 297 304 311 311 311 309 312 312 307 300 300 299 297 296 293 291 289 289 286 282 275 274 270 268
265 266 269 270 269 270 271 275 280 283 286 287 285 282 280 283 283 290 290 296 300 304 309 312 315 315 316 314 315 314 312 308 304 302 296 293 292 291 290 287 284 280 276 272
264 265 265 268 270 270 272 275 281 283 288 290 285 292 286 286 285 294 298 301 306 309 314 315 314 313 313 314 314 313 312 310 308 304 301 298 294 293 288 285 281 278 276 275
262 264 266 267 268 271 274 278 281 282 284 292 287 292 287 282 286 293 299 303 307 312 314 312 312 313 314 314 312 312 311 312 309 304 301 297 294 292 290 286 283 280 279 278
263 264 264 265 267 271 278 282 282 282 289 293 287 291 289 294 299 302 303 309 313 314 314 312 312 311 311 312 312 311 312 311 308 302 298 296 294 292 290 288 285 283 281 279
263 263 266 265 265 269 275 281 280 280 286 288 290 292 297 299 302 303 309 311 312 310 309 312 309 308 309 310 313 313 310 309 306 301 299 296 293 291 291 289 286 284 283 281
267 269 269 270 270 271 271 274 284 285 285 289 291 297 302 303 305 307 306 310 310 309 308 306 308 309 309 311 312 309 309 307 303 300 297 294 293 291 289 287 284 283 281 280
267 270 266 270 273 273 271 275 281 286 288 291 294 302 299 304 303 307 310 309 308 308 308 309 309 309 310 310 309 308 306 306 302 298 297 295 293 293 291 289 288 286 285 283
277 277 277 274 276 273 276 278 284 291 295 298 299 301 301 301 305 307 307 306 304 307 308 307 307 308 310 309 308 306 305 302 300 298 297 296 295 294 292 291 289 288 286 284
281 284 282 285 287 284 288 291 294 296 297 299 298 299 299 301 304 305 303 304 308 306 305 306 306 307 306 305 307 304 303 301 300 299 298 297 295 294 293 291 290 289 288 286
283 283 286 286 288 290 295 296 296 295 296 297 296 295 298 301 300 303 302 304 304 306 306 305 306 306 304 305 304 303 302 300 300 298 297 295 295 295 293 292 291 290 289 288
280 281 284 288 291 291 293 294 292 292 296 296 296 298 297 299 301 301 303 304 305 303 305 305 305 304 306 303 302 301 300 299 298 297 297 297 296 295 293 292 291 290 289 287
278 280 281 283 288 291 292 291 292 294 293 293 294 297 297 298 299 303 302 302 303 303 303 303 303 303 302 302 301 300 300 298 298 298 298 297 296 295 294 292 291 290 289 288
278 280 280 281 283 287 287 288 290 291 291 292 295 295 295 299 302 302 300 300 301 301 302 302 302 302 302 300 300 299 298 297 296 296 296 294 294 293 291 290 290 289 289 288
275 274 278 280 280 283 285 285 288 289 290 290 292 294 297 300 300 299 298 299 300 300 300 299 300 300 299 299 298 297 297 296 296 296 294 294 293 291 291 291 291 290 289 289
272 274 280 280 280 281 281 283 284 287 288 290 291 294 297 297 296 296 297 298 298 298 298 298 299 298 298 297 297 297 297 296 295 295 294 294 293 293 293 292 291 290 290 289
273 275 279 277 280 280 281 282 284 286 288 292 293 293 294 294 296 296 296 296 296 297 297 297 297 297 298 297 296 296 296 296 296 296 295 294 295 295 294 293 292 291 289 288
271 272 276 276 277 279 282 283 283 286 289 291 290 291 293 292 293 294 296 296 296 296 297 297 296 297 296 295 295 295 295 295 294 293 294 294 293 293 292 292 291 290 290 291
Height
10736 10738 10734 10738 10739 10740 10740 10740 10740 10734 10737 10740 10737 10737 10731 10732 10731 10729 10728 10727 10725 10724 10722 10721 10719 10717 10714 10712 10709 10706 10704 10701 10697 10695 10693 10690 10688 10684 10684 10682 10679 10677 10675 10674
10728 10731 10727 10728 10730 10731 10731 10732 10729 10729 10728 10730 10729 10728 10725 10723 10723 10722 10719 10716 10714 10712 10711 10708 10704 10701 10698 10696 10694 10692 10690 10687 10684 10680 10677 10673 10670 10668 10665 10661 10659 10657 10654 10652
10720 10722 10718 10720 10721 10720 10723 10720 10720 10721 10719 10721 10721 10721 10716 10714 10712 10711 10708 10705 10702 10700 10697 10694 10691 10687 10685 10681 10678 10676 10673 10671 10668 10665 10661 10656 10653 10650 10648 10645 10641 10638 10635 10634
10712 10709 10710 10710 10710 10710 10713 10709 10711 10711 10712 10711 10711 10714 10709 10703 10700 10696 10694 10692 10689 10687 10683 10682 10678 10673 10670 10667 10663 10658 10656 10652 10649 10645 10642 10638 10635 10631 10628 10625 10623 10619 10615 10611
10699 10700 10697 10699 10699 10700 10700 10699 10700 10700 10701 10703 10700 10699 10703 10695 10686 10682 10678 10675 10672 10669 10667 10664 10662 10657 10654 10649 10646 10641 10636 10631 10628 10624 10620 10617 10614 10610 10606 10601 10599 10594 10591 10589
10684 10687 10687 10686 10687 10687 10687 10687 10687 10689 10688 10694 10684 10685 10693 10682 10675 10671 10666 10659 10656 10653 10649 10646 10642 10638 10633 10630 10624 10618 10612 10608 10604 10600 10595 10589 10585 10580 10577 10574 10571 10566 10563 10559
10670 10674 10674 10674 10672 10673 10674 10674 10673 10675 10674 10679 10675 10674 10674 10666 10661 10657 10652 10647 10640 10635 10631 10626 10622 10619 10612 10608 10602 10596 10591 10584 10578 10573 10568 10565 10559 10551 10544 10541 10536 10532 10528 10525
10659 10659 10660 10659 10658 10660 10660 10659 10656 10656 10660 10663 10663 10663 10659 10651 10644 10638 10632 10626 10621 10615 10609 10604 10599 10594 10587 10581 10574 10569 10564 10557 10550 10542 10535 10528 10522 10516 10511 10504 10499 10495 10492 10487
10644 10646 10644 10644 10644 10644 10646 10644 10636 10638 10642 10645 10647 10647 10644 10635 10627 10618 10609 10604 10599 10593 10587 10581 10574 10565 10558 10551 10545 10539 10533 10525 10518 10511 10503 10495 10488 10481 10472 10466 10462 10459 10452 10446
10629 10628 10630 10629 10628 10628 10627 10626 10623 10618 10620 10625 10633 10631 10625 10617 10606 10594 10587 10580 10574 10569 10563 10556 10548 10539 10529 10521 10514 10508 10502 10494 10486 10479 10471 10463 10455 10446 10437 10429 10422 10415 10410 10404
10610 10611 10615 10613 10614 10609 10609 10611 10602 10595 10600 10596 10607 10615 10605 10592 10582 10573 10564 10558 10552 10545 10538 10529 10520 10512 10501 10492 10487 10480 10471 10461 10452 10443 10435 10425 10415 10405 10396 10387 10379 10373 10367 10361
10589 10592 10596 10594 10595 10594 10591 10588 10582 10580 10578 10573 10573 10600 10578 10565 10558 10544 10538 10533 10528 10521 10512 10502 10492 10482 10473 10466 10456 10445 10436 10425 10414 10404 10395 10385 10375 10364 10353 10345 10339 10333 10326 10321
10569 10575 10574 10578 10579 10576 10572 10569 10564 10559 10555 10559 10544 10564 10548 10538 10528 10517 10509 10505 10498 10489 10481 10472 10463 10457 10448 10437 10425 10413 10401 10390 10380 10369 10359 10347 10337 10328 10319 10312 10304 10299 10292 10286
10545 10551 10559 10559 10553 10554 10553 10553 10549 10539 10538 10527 10531 10517 10515 10503 10492 10487 10483 10478 10472 10466 10458 10449 10440 10428 10417 10405 10390 10377 10366 10355 10345 10332 10321 10312 10303 10294 10286 10279 10272 10266 10260 10254
10522 10530 10531 10534 10532 10529 10532 10536 10531 10524 10514 10498 10504 10492 10485 10466 10458 10456 10453 10448 10444 10436 10427 10419 10408 10393 10381 10369 10356 10342 10331 10321 10310 10299 10288 10279 10271 10263 10256 10248 10241 10235 10230 10224
10498 10503 10507 10506 10503 10499 10503 10516 10512 10497 10489 10477 10461 10473 10448 10441 10437 10430 10424 10418 10411 10402 10395 10385 10373 10359 10348 10335 10321 10308 10293 10284 10273 10264 10254 10246 10238 10230 10223 10215 10207 10200 10194 10189
10476 10475 10477 10474 10476 10469 10476 10498 10479 10465 10456 10442 10435 10439 10423 10415 10412 10409 10401 10391 10383 10375 10363 10351 10338 10327 10315 10299 10285 10270 10260 10251 10239 10229 10220 10212 10204 10196 10189 10181 10174 10168 10162 10157
10453 10448 10445 10442 10440 10434 10459 10457 10450 10432 10428 10417 10410 10401 10395 10396 10398 10390 10378 10365 10356 10344 10329 10317 10305 10295 10282 10268 10255 10240 10227 10218 10207 10198 10188 10180 10172 10165 10157 10149 10143 10137 10132 10126
10424 10422 10414 10406 10407 10407 10432 10419 10410 10399 10404 10396 10379 10376 10372 10370 10369 10364 10344 10342 10328 10310 10295 10283 10270 10259 10245 10233 10220 10209 10197 10187 10177 10167 10159 10150 10143 10135 10127 10120 10113 10107 10102 10096
10399 10396 10386 10374 10369 10368 10399 10387 10374 10365 10369 10368 10351 10348 10345 10339 10337 10336 10317 10309 10294 10280 10264 10248 10238 10224 10213 10200 10191 10182 10170 10159 10147 10138 10128 10120 10113 10106 10098 10093 10086 10080 10075 10068
10375 10371 10363 10357 10348 10348 10356 10350 10336 10324 10326 10338 10335 10325 10319 10314 10310 10302 10289 10276 10261 10248 10230 10218 10206 10194 10182 10174 10164 10153 10141 10128 10118 10107 10098 10091 10084 10077 10070 10064 10057 10052 10047 10041
10349 10343 10343 10333 10325 10326 10329 10313 10307 10301 10295 10295 10297 10293 10288 10286 10278 10268 10256 10245 10230 10218 10198 10185 10176 10165 10153 10141 10133 10123 10112 10101 10092 10083 10075 10068 10060 10053 10046 10039 10032 10026 10022 10016
10323 10323 10321 10316 10307 10300 10291 10283 10279 10269 10269 10268 10264 10258 10257 10254 10245 10235 10221 10207 10194 10182 10169 10156 10146 10137 10124 10112 10104 10095 10084 10076 10067 10058 10050 10043 10035 10026 10019 10013 10006 9999 9993 9990
10301 10302 10296 10289 10286 10268 10256 10246 10242 10242 10246 10239 10237 10235 10232 10225 10217 10206 10190 10177 10160 10149 10138 10128 10119 10106 10098 10085 10075 10064 10055 10047 10040 10030 10022 10015 10007 9999 9992 9985 9979 9973 9968 9964
10277 10279 10272 10262 10253 10232 10224 10214 10214 10212 10208 10209 10210 10204 10194 10184 10177 10164 10156 10146 10131 10120 10107 10097 10086 10077 10069 10058 10048 10037 10028 10019 10012 10003 9995 9988 9980 9974 9965 9959 9952 9948 9942 9939
10251 10249 10244 10231 10214 10197 10193 10187 10184 10183 10184 10186 10176 10168 10157 10144 10134 10126 10119 10108 10096 10085 10074 10066 10058 10049 10040 10031 10022 10013 10005 9995 9986 9978 9971 9964 9957 9950 9944 9937 9928 9924 9920 9913